Regional Weather Roundup
Issued by NWS

Home | Current Version | Previous Version | Graphics & Text | Print | Product List | Glossary On
Versions: 1 2 3 4 5 6 7 8 9 10 11 12 13 14 15 16 17 18 19 20 21 22 23 24 25 26 27 28 29 30 31 32 33 34 35 36 37 38 39 40 41 42 43 44 45 46 47 48 49 50
000
ASUS43 KMPX 181701
RWRMN
WEATHER ROUNDUP FOR MINNESOTA
NATIONAL WEATHER SERVICE TWIN CITIES/CHANHASSEN MN
1100 AM CST THU JAN 18 2018


NOTE: "FAIR" INDICATES FEW OR NO CLOUDS BELOW 12,000 FEET WITH NO
SIGNIFICANT WEATHER AND/OR OBSTRUCTIONS TO VISIBILITY. N/A MEANS
CURRENT SKY AND/OR WEATHER CONDITIONS ARE NOT AVAILABLE.

MNZ060>063-068>070-181800-
   Twin Cities Metro

CITY           SKY/WX    TMP DP  RH WIND       PRES   REMARKS
TWIN CITIES    FAIR      32  21  64 SW8       29.88F WCI  25
ST PAUL        FAIR      32  20  61 SW8       29.89F WCI  25
CRYSTAL        FAIR      33  19  56 SW7       29.86F WCI  27
BLAINE         SUNNY     36  21  55 SW8       29.85F
LAKEVILLE      FAIR      32  21  64 W9        29.89R WCI  24
EDEN PRAIRIE   FAIR      30  20  66 SW10      29.88S WCI  21
SOUTH ST PAUL  FAIR      34  22  61 SW10      29.88F WCI  26
LAKE ELMO      FAIR      32  23  69 SW13      29.87F WCI  22
$$
MNZ001>005-007-008-013>017-022>024-027-028-181800-
   Northwest Minnesota

CITY           SKY/WX    TMP DP  RH WIND       PRES   REMARKS
BEMIDJI        CLOUDY    30  24  78 W6        29.75R WCI  24
HALLOCK        CLOUDY    25  18  74 CALM      29.75F
ROSEAU         CLOUDY    25  19  80 W5        29.74S WCI  19
WARROAD        CLOUDY    25  16  68 W6        29.74S WCI  18
CROOKSTON      FAIR      21  18  86 SW3       29.79S
FOSSTON        CLOUDY    25  18  74 S5        29.77F WCI  19
DETROIT LAKES  FAIR      30  21  69 NW6       29.79S WCI  24
MOORHEAD       FAIR      25  19  80 SW5       29.83R WCI  19
PARK RAPIDS    CLOUDY    29  22  75 W6        29.77S WCI  23
MAHNOMEN       FAIR      23  18  81 S8        29.78S WCI  14
$$
MNZ006-009>011-018-025>026-181800-
   North Central Minnesota

CITY           SKY/WX    TMP DP  RH WIND       PRES   REMARKS
BAUDETTE       FAIR      25  18  74 W10       29.71R WCI  15
FLAG ISLAND    FAIR      23  16  74 NW5       29.70S WCI  17
INTL FALLS     CLOUDY    28  23  81 W13       29.70R WCI  17
WASKISH        CLOUDY   N/A N/A N/A W10       29.73F
BIG FORK       CLOUDY    30  23  74 W5G17     29.73R WCI  25
LONGVILLE      CLOUDY    30  23  74 SW3       29.75F
GRAND RAPIDS   CLOUDY    33  25  72 W12       29.76R WCI  24
CRANE LAKE     CLOUDY    28  27  93 W5        29.72R WCI  23
ORR            CLOUDY    28  23  80 NW7G16    29.70R WCI  21
COOK           CLOUDY    30  25  80 W9        29.72R WCI  22
WALKER         CLOUDY    31  24  74 W8        29.76S WCI  24
$$
MNZ012-019>021-037-181800-
   Northeast Minnesota

CITY           SKY/WX    TMP DP  RH WIND       PRES   REMARKS
DULUTH         CLOUDY    33  24  69 W15       29.72R WCI  23
ELY            CLOUDY    30  28  93 W8        29.68S WCI  23
HIBBING        CLOUDY    30  24  78 NW14      29.73R WCI  19
EVELETH        CLOUDY    30  21  69 W13G20    29.73R WCI  20
DULUTH HARBOR  CLOUDY    34  25  69 SW13      29.77S WCI  25
TWO HARBORS    CLOUDY    37  27  65 W9        29.70S
SILVER BAY     CLOUDY    34  27  75 CALM      29.69S
GRAND MARAIS     N/A     35  30  82 W7        29.69S WCI  29
G MARAIS ARPRT CLOUDY    28  23  80 W6        29.64R HAZE    WCI  22
$$
MNZ029>031-032-039>041-046>048-054>057-064-181800-
   West Central Minnesota

CITY           SKY/WX    TMP DP  RH WIND       PRES   REMARKS
FERGUS FALLS   FAIR      28  21  74 W6        29.81F WCI  22
WHEATON        CLOUDY    37  25  60 W7        29.85S
MORRIS         CLOUDY    39  27  60 W9        29.82F
ALEXANDRIA     FAIR      36  23  59 W10       29.82S
ELBOW LAKE     FAIR      32  23  70 SW5       29.82F WCI  27
WADENA         FAIR      30  21  69 W7        29.79S WCI  23
GLENWOOD       FAIR      36  25  64 W7        29.83F
APPLETON       SUNNY     37  23  56 CALM      29.84F
BENSON         SUNNY     37  25  60 W5        29.85F
ORTONVILLE     CLOUDY    39  25  56 W7        29.84S
MADISON        CLOUDY    39  28  65 E5        29.84F
WILLMAR        FAIR      34  25  69 SW7       29.87F WCI  28
$$
MNZ033>034-036-042>043-049>051-058-059-181800-
   Central Minnesota

CITY           SKY/WX    TMP DP  RH WIND       PRES   REMARKS
ST CLOUD       FAIR      35  24  64 W10       29.82F WCI  27
SAUK CENTRE      N/A     34  24  65 W10       29.82S WCI  26
PAYNESVILLE    FAIR      36  26  68 W12       29.84F
AITKIN         CLOUDY    30  21  69 W7        29.77S WCI  23
PINE RIVER     CLOUDY    30  21  69 W3        29.81F
BRAINERD       FAIR      32  22  66 W9        29.80R WCI  24
STAPLES        FAIR      30  19  64 W7        29.80S WCI  23
LONG PRAIRIE   FAIR      34  23  64 SW12      29.81S WCI  25
LITTLE FALLS     N/A    N/A N/A N/A W6          N/A
LITCHFIELD     FAIR      36  27  69 W6        29.86S
BUFFALO        FAIR      34  22  62 SW5       29.87S WCI  30
MAPLE LAKE     FAIR      37  25  63 MISG      29.86S
HUTCHINSON     FAIR      37  26  66 SW12      29.87F
$$
MNZ037-044-045-052-053-181800-
   East Central Minnesota

CITY           SKY/WX    TMP DP  RH WIND       PRES   REMARKS
PRINCETON      FAIR      36  23  60 SW8       29.84R
MORA           FAIR      32  21  64 SW5       29.83S WCI  27
CAMBRIDGE      FAIR      36  21  55 SW6       29.84S
RUSH CITY      FAIR      33  21  61 SW6       29.84S WCI  28
MOOSE LAKE     CLOUDY    34  25  69 W10       29.77R WCI  26
HINCKLEY       FAIR      32  23  69 SW3       29.81S
CLOQUET        CLOUDY    34  23  64 W10       29.74S WCI  26
MCGREGOR       CLOUDY    34  27  75 W5        29.77S WCI  30
$$
MNZ071>073-080-081-089-090-097-098-181800-
   Southwest Minnesota

CITY           SKY/WX    TMP DP  RH WIND       PRES   REMARKS
MONTEVIDEO     SUNNY     43  25  49 CALM      29.85F
GRANITE FALLS  SUNNY     38  27  65 SW5       29.88R
CANBY          CLOUDY    44  25  47 SW16G23   29.84S
MARSHALL       SUNNY     42  26  53 SW16G24   29.84F
REDWOOD FALLS  SUNNY     35  25  66 SW12      29.87F WCI  27
OLIVIA         SUNNY     34  27  75 SW8       29.86F WCI  27
PIPESTONE      CLOUDY    28  21  74 SW9       29.89F WCI  20
WINDOM         SUNNY     36  16  44 SW15      29.90F
WORTHINGTON    SUNNY     33  22  63 SW15      29.92F WCI  23
JACKSON        SUNNY     32  23  69 SW15      29.92F WCI  22
SLAYTON        CLOUDY    30  22  72 S10       29.90F WCI  21
$$
MNZ065>067-074>077-082>085-091>093-181800-
   South Central Minnesota

CITY           SKY/WX    TMP DP  RH WIND       PRES   REMARKS
MANKATO        FAIR      32  22  66 S8        29.92S WCI  25
NEW ULM        SUNNY     37  25  60 SW9       29.88F
ST JAMES       SUNNY     37  27  65 SW10      29.91S
FAIRMONT       SUNNY     33  24  69 SW20      29.92F WCI  21
FARIBAULT      FAIR      28  19  69 S7        29.91F WCI  21
OWATONNA       FAIR      30  21  69 SW8       29.93R WCI  23
WASECA         FAIR      28  21  74 SW10      29.94S WCI  19
ALBERT LEA     FAIR      28  19  69 SW13      29.93F WCI  18
$$
MNZ078>079-086>088-094>096-181800-
   Southeast Minnesota

CITY           SKY/WX    TMP DP  RH WIND       PRES   REMARKS
ROCHESTER      FAIR      29  21  72 SW16      29.92S WCI  17
RED WING       FAIR      30  18  59 W6        29.90S WCI  24
STANTON        FAIR      31  21  67 SW15      29.88F WCI  20
DODGE CENTER   FAIR      27  19  74 SW16      29.90F WCI  14
WINONA         FAIR      30  19  64 SW7       29.93F WCI  23
PRESTON        FAIR      28  19  67 SW10      29.94S WCI  19
$$
ABBREVIATIONS USED IN REMARKS
   TC - TEMPERATURES IN CELSIUS
  WCI - WIND CHILL INDEX
   HX - HEAT INDEX
  VSB - VISIBILITY
$$



USA.gov is the U.S. government's official web portal to all federal, state and local government web resources and services.